TimeEDT,TemperatureF,Dew PointF,Humidity,Sea Level PressureIn,VisibilityMPH,Wind Direction,Wind SpeedMPH,Gust SpeedMPH,PrecipitationIn,Events,Conditions,WindDirDegrees,DateUTC
12:54 AM,39.0,15.1,38,30.41,10.0,NE,8.1,-,N/A,,Mostly Cloudy,40,2013-04-04 04:54:00
1:54 AM,37.9,16.0,41,30.42,10.0,NNE,9.2,-,N/A,,Mostly Cloudy,20,2013-04-04 05:54:00
2:54 AM,35.1,16.0,46,30.41,10.0,NNE,8.1,-,N/A,,Mostly Cloudy,30,2013-04-04 06:54:00
3:54 AM,34.0,16.0,48,30.40,10.0,NNE,4.6,-,N/A,,Scattered Clouds,20,2013-04-04 07:54:00
4:54 AM,32.0,18.0,56,30.40,10.0,NNE,6.9,-,N/A,,Scattered Clouds,20,2013-04-04 08:54:00
5:54 AM,32.0,18.0,56,30.40,10.0,NNE,4.6,-,N/A,,Mostly Cloudy,20,2013-04-04 09:54:00
6:54 AM,32.0,18.0,56,30.41,10.0,NE,3.5,-,N/A,,Mostly Cloudy,40,2013-04-04 10:54:00
7:54 AM,35.1,19.9,54,30.44,10.0,Calm,Calm,-,N/A,,Overcast,0,2013-04-04 11:54:00
8:54 AM,37.0,18.0,46,30.44,10.0,NNE,10.4,-,N/A,,Overcast,30,2013-04-04 12:54:00
9:54 AM,41.0,18.0,40,30.43,10.0,East,5.8,-,N/A,,Overcast,100,2013-04-04 13:54:00
10:54 AM,44.1,17.1,34,30.42,10.0,Variable,4.6,-,N/A,,Overcast,0,2013-04-04 14:54:00
11:54 AM,46.0,17.1,31,30.38,10.0,ESE,6.9,-,N/A,,Overcast,120,2013-04-04 15:54:00
12:54 PM,48.0,16.0,28,30.34,10.0,Calm,Calm,-,N/A,,Overcast,0,2013-04-04 16:54:00
1:54 PM,48.9,19.0,31,30.31,10.0,SSE,5.8,-,N/A,,Overcast,150,2013-04-04 17:54:00
2:54 PM,48.9,21.0,33,30.27,10.0,SSW,4.6,-,N/A,,Overcast,210,2013-04-04 18:54:00
3:54 PM,50.0,19.9,31,30.27,10.0,WSW,4.6,-,N/A,,Overcast,240,2013-04-04 19:54:00
4:54 PM,48.9,18.0,29,30.24,10.0,South,3.5,-,N/A,,Overcast,170,2013-04-04 20:54:00
5:54 PM,48.0,24.1,39,30.23,10.0,South,3.5,-,N/A,,Overcast,180,2013-04-04 21:54:00
6:54 PM,44.1,32.0,63,30.22,10.0,South,10.4,-,0.00,Rain,Light Ice Pellets,180,2013-04-04 22:54:00
7:05 PM,42.8,33.8,70,30.20,10.0,South,6.9,-,0.00,Rain,Light Rain,180,2013-04-04 23:05:00
7:54 PM,41.0,35.1,79,30.19,7.0,Calm,Calm,-,0.03,Rain,Light Rain,0,2013-04-04 23:54:00
8:54 PM,39.9,36.0,86,30.17,5.0,ENE,5.8,-,0.06,Rain,Light Rain,60,2013-04-05 00:54:00
9:54 PM,39.0,37.0,93,30.14,4.0,NE,5.8,-,0.08,Rain,Rain,50,2013-04-05 01:54:00
10:54 PM,37.9,37.0,97,30.14,4.0,East,4.6,-,0.10,Rain,Light Rain,80,2013-04-05 02:54:00
11:13 PM,39.2,37.4,93,30.09,3.0,ENE,4.6,-,0.02,Rain,Light Rain,60,2013-04-05 03:13:00
11:31 PM,37.4,37.4,100,30.06,3.0,NNE,11.5,-,0.08,Rain,Rain,30,2013-04-05 03:31:00
11:54 PM,37.9,36.0,93,30.06,3.0,NNE,10.4,-,0.21,Rain,Rain,30,2013-04-05 03:54:00